SCP
0 -0 -0 -0 0 0 0 0 0 0 0 0 0 0 0 0 -0 -0 -0 -0 0 -0 -0 -0 -0 -1 -1 -1 -1 -1 -1 -1 -1 -0 -0 -0 -0 -0 -0 -0 -0 -0 -0 -0 -0 0 0 0 0
0 0 -0 0 0 0 0 0 0 0 0 0 0 0 0 0 0 0 0 0 0 0 -0 -0 -0 -0 -1 -1 -1 -1 -1 -1 -1 -1 -0 -0 -0 -0 -0 -0 -0 -0 -0 -0 -0 -0 0 0 0
0 0 0 0 0 0 0 0 0 0 0 0 0 0 0 0 0 0 0 0 0 0 0 -0 -0 -0 -1 -1 -1 -1 -1 -1 -1 -1 -1 -0 -0 -0 -0 -0 -0 -0 -0 -0 -0 -0 -0 0 0
-0 0 0 0 0 0 0 0 0 0 0 0 0 0 0 0 0 0 0 0 0 0 0 -0 0 -0 -1 -1 -1 -1 -1 -1 -1 -1 -1 -0 -0 -0 -0 -0 -0 -0 -0 -0 -0 -0 -0 0 0
0 0 0 0 0 0 0 0 0 0 0 0 0 0 0 0 0 0 0 -0 0 0 0 -0 0 -0 -0 -0 -0 -1 -1 -1 -0 -0 -0 -0 -0 -0 -0 -0 -0 -0 -0 -0 -0 -0 0 0 0
0 0 0 0 0 0 0 0 0 0 0 0 0 0 0 0 0 0 0 0 0 0 1 0 0 0 0 0 -0 -0 -0 -0 -0 -0 -0 -0 -0 -0 -0 -0 -0 -0 0 0 0 0 0 0 0
0 0 0 0 0 0 0 0 0 0 0 0 0 0 0 0 0 0 0 1 0 0 1 1 0 0 1 0 0 0 0 0 -0 -0 -0 -0 -0 -0 -0 -0 -0 0 0 0 0 0 0 0 0
0 0 0 0 0 0 0 0 0 0 0 0 0 0 0 0 0 0 0 1 1 1 1 1 0 0 0 0 1 0 0 0 0 0 0 -0 -0 -0 -0 0 0 0 0 0 0 0 0 0 0
0 0 0 0 0 0 0 0 0 0 0 0 0 0 0 0 0 0 0 0 2 1 1 1 1 0 0 0 0 1 0 0 0 0 0 0 0 0 -0 -0 -0 0 0 0 0 0 0 0 0
0 0 0 0 0 0 0 0 0 0 0 0 0 0 0 0 0 0 0 0 1 2 1 1 1 1 0 0 0 0 0 0 0 0 0 0 0 0 0 0 0 0 0 0 0 0 0 0 0
0 0 0 0 0 0 0 0 0 0 0 0 0 0 0 0 0 0 0 0 0 1 2 1 1 1 1 1 1 1 0 0 0 0 0 0 0 0 0 0 0 0 0 0 0 0 0 0 0
0 0 0 0 0 0 0 0 0 0 0 0 0 0 0 0 0 0 0 0 0 0 1 3 2 1 1 1 1 1 1 0 0 0 0 0 0 0 0 0 0 0 0 0 0 0 0 0 0
0 0 0 0 0 0 0 0 0 0 0 0 0 0 0 0 0 0 0 0 0 0 0 1 3 2 1 1 1 1 1 1 1 1 0 0 0 0 0 0 0 0 0 0 0 0 0 0 0
0 0 0 0 0 0 0 0 0 0 0 0 0 0 0 0 0 0 0 0 0 0 0 0 1 2 2 2 2 1 1 1 1 1 1 0 0 1 1 1 0 0 0 0 0 0 0 0 0
0 0 0 0 0 0 0 0 0 0 0 0 0 0 0 0 0 0 0 0 0 0 0 0 0 1 1 3 2 2 1 1 1 1 1 1 1 1 1 0 0 0 0 0 0 0 0 0 0
-0 -0 -0 0 0 0 0 0 0 0 0 0 0 0 0 0 0 0 0 0 0 0 0 0 0 0 1 2 2 2 2 1 1 1 1 1 1 1 1 0 0 0 0 0 0 0 0 0 0
-0 0 0 0 -0 0 0 0 0 0 0 0 0 0 0 0 0 0 0 0 0 0 0 0 0 0 0 3 3 3 3 3 2 1 1 1 1 1 1 0 0 1 1 0 0 0 0 0 0
0 0 0 0 0 0 0 0 0 0 0 0 -0 -0 -0 -0 0 0 0 0 0 0 0 0 0 0 1 2 5 5 5 4 3 2 1 1 1 1 1 1 1 1 0 0 0 0 0 0 1
0 0 0 0 0 0 0 0 0 0 0 0 0 -0 -0 -0 -0 0 0 0 0 0 0 0 0 0 1 1 5 6 6 5 4 3 3 2 2 1 1 1 1 1 1 0 1 0 1 1 1
0 0 0 0 0 0 0 0 0 0 0 -0 0 0 0 0 0 0 0 0 0 0 0 0 0 0 0 0 4 5 4 5 4 4 5 3 2 2 2 2 1 1 0 1 3 1 0 1 2
0 0 0 0 0 0 0 0 0 0 0 0 0 0 0 0 0 0 0 0 0 0 0 0 0 0 0 1 3 5 6 6 6 5 5 4 3 3 3 2 2 2 1 1 3 2 2 1 2
0 0 0 0 0 0 0 0 0 0 0 0 0 0 0 0 0 0 0 0 0 0 0 0 0 0 0 1 2 6 4 3 3 3 4 4 4 3 3 3 2 3 1 1 3 2 2 3 2
0 0 0 0 0 0 0 0 0 0 0 0 0 0 0 0 0 0 0 0 0 0 0 0 0 0 0 1 2 3 4 3 3 4 4 4 4 3 3 3 2 2 1 2 4 4 3 2 2
0 0 0 0 0 0 0 0 0 0 0 0 0 0 0 0 0 0 0 0 0 0 0 0 0 0 0 1 2 3 2 2 4 4 4 4 5 5 4 3 3 3 2 4 3 3 4 4 3
0 0 0 0 0 0 0 0 0 -0 0 0 0 0 0 0 0 0 0 0 0 0 0 0 0 0 0 1 2 3 3 2 2 2 4 5 5 4 4 4 5 3 4 2 3 4 3 4 3
0 0 0 0 0 0 0 0 0 0 0 0 0 0 0 0 0 0 0 0 0 0 0 0 0 0 0 0 1 2 4 4 3 3 4 4 4 3 4 5 4 3 3 2 5 5 5 4 4
0 0 0 0 0 0 0 0 0 0 0 0 0 0 0 0 0 0 0 0 0 0 0 0 0 0 0 0 1 0 2 3 4 2 2 3 3 4 3 3 3 3 2 2 5 7 6 4 1
0 0 0 0 0 0 0 0 0 0 0 0 0 0 0 0 0 0 0 0 0 0 0 0 0 0 0 0 0 0 0 1 2 3 3 2 1 2 2 4 3 2 3 3 6 4 1 0 0
0 0 0 0 0 0 -0 0 0 0 0 0 0 0 0 0 0 0 0 0 0 0 0 0 0 0 0 0 0 0 1 1 1 1 2 2 2 2 3 2 4 2 3 4 1 0 0 0 0
-0 0 0 0 0 0 0 0 0 0 0 0 0 0 0 0 0 0 0 0 0 0 0 0 0 0 0 0 0 0 0 1 1 1 1 2 2 2 2 2 2 2 0 0 0 0 0 0 0
Wind_Speed_500mb
11 8 5 9 14 11 9 12 5 2 1 17 23 10 18 5 20 10 25 11 8 32 42 52 49 44 41 40 38 36 32 32 32 29 28 31 32 37 38 37 33 32 30 29 27 24 22 22 25
4 2 4 10 15 18 13 12 15 5 15 22 17 13 4 28 25 14 18 16 18 35 43 54 49 46 41 41 39 37 33 32 33 32 31 33 34 38 38 35 33 31 28 26 25 24 23 25 28
1 7 14 9 18 22 16 10 10 8 15 18 13 10 11 17 26 23 31 9 20 35 43 49 51 49 44 42 40 37 33 34 34 35 34 35 35 37 38 35 32 28 26 26 25 23 23 27 29
2 7 11 18 30 9 12 7 2 6 8 6 16 7 11 20 23 30 21 4 26 33 40 50 55 50 45 42 39 36 34 34 35 37 37 36 36 37 40 37 32 27 26 25 24 22 22 26 30
4 10 18 26 28 4 8 4 6 9 7 12 15 5 3 10 24 27 16 6 22 30 38 48 56 52 47 42 39 37 35 34 36 38 37 37 37 37 39 37 33 28 25 23 21 21 22 25 29
14 10 18 30 29 10 12 5 11 9 8 12 11 20 3 12 25 25 15 4 19 30 36 43 56 53 48 43 40 38 35 34 36 39 39 38 37 38 39 38 33 28 24 22 20 20 21 25 28
22 14 26 28 17 15 9 7 4 9 15 8 19 16 5 18 22 21 17 2 18 28 34 35 55 54 50 45 41 38 35 34 35 39 40 40 39 39 41 39 34 29 26 24 22 21 22 24 27
8 9 17 21 22 22 9 9 8 16 17 18 5 4 9 27 23 16 13 3 11 25 33 35 40 51 53 49 46 40 37 35 35 38 40 41 42 41 41 40 36 32 28 26 24 22 23 23 25
4 12 21 27 18 5 6 12 8 17 28 17 19 22 18 18 21 16 13 9 8 21 30 36 39 41 42 38 49 45 41 38 36 38 42 43 42 43 43 41 40 35 32 29 27 25 24 23 23
15 16 16 13 8 14 13 18 24 23 27 27 25 21 20 22 21 16 12 9 6 18 30 36 40 43 43 41 42 51 48 45 44 44 47 47 37 38 34 39 41 39 36 33 30 28 26 24 17
3 15 7 10 7 13 24 25 21 27 32 28 27 28 28 29 24 22 19 14 12 12 25 36 41 43 44 43 40 42 39 38 42 45 47 44 36 34 36 32 42 40 39 33 33 32 28 24 22
16 4 10 6 18 26 29 32 32 35 41 37 36 38 37 34 29 25 24 21 18 15 19 29 42 43 48 45 45 43 44 43 42 44 48 43 40 37 37 33 31 33 31 29 27 25 25 27 25
15 5 11 19 27 33 36 38 40 42 38 42 38 37 38 34 30 28 25 23 20 19 18 26 35 44 48 53 48 48 49 49 46 45 49 46 43 42 39 36 33 31 32 31 30 28 28 27 26
2 17 26 28 25 23 27 34 29 27 23 22 25 31 33 33 36 35 33 30 26 22 20 23 35 42 44 51 54 51 51 51 51 49 48 56 46 44 42 41 37 35 34 31 30 29 28 28 25
14 24 21 18 11 20 15 35 43 37 33 36 35 37 38 42 43 44 40 38 35 30 26 27 41 42 49 52 55 56 53 53 53 53 56 59 57 52 51 48 39 37 35 35 34 33 32 29 27
19 14 13 19 19 16 11 33 29 17 25 43 45 49 50 50 51 52 51 49 44 38 37 35 32 41 49 52 52 55 57 55 55 54 54 63 61 58 54 46 45 41 38 35 32 32 32 31 30
17 14 22 16 22 16 25 38 29 31 43 50 59 58 58 59 58 58 56 56 54 49 46 48 44 46 49 53 51 55 59 62 58 56 56 61 67 63 58 45 44 49 45 39 35 33 34 36 33
22 28 24 28 16 33 41 47 38 38 41 52 56 58 62 66 66 60 58 56 54 51 52 59 52 44 50 53 54 57 62 68 59 60 58 58 67 72 69 50 47 52 49 39 37 36 36 35 33
24 29 33 31 27 31 41 52 47 47 49 50 56 59 62 63 60 52 55 52 53 49 50 61 60 47 41 53 60 62 67 71 64 61 63 62 66 69 66 61 59 58 47 46 50 42 38 36 34
27 33 35 30 20 32 41 62 51 40 28 36 42 50 51 47 44 40 39 42 46 48 47 45 48 55 46 46 57 62 62 70 62 59 65 63 59 69 69 66 61 60 52 59 54 52 43 43 41
27 32 35 40 36 35 30 43 7 27 21 24 21 23 30 33 33 33 35 34 39 43 43 47 44 41 50 41 45 48 56 59 58 71 71 71 67 61 66 65 62 64 60 57 63 58 54 46 38
35 20 25 34 28 23 23 25 35 15 16 14 20 24 29 28 22 24 22 24 23 25 31 40 43 45 44 42 44 53 52 60 59 58 72 72 68 66 60 61 66 69 67 61 61 59 57 59 46
22 20 29 33 36 40 36 20 13 14 12 13 15 18 7 7 14 18 18 20 18 16 16 20 27 41 44 36 42 46 50 48 44 54 66 65 66 71 66 61 65 71 73 62 61 64 66 62 56
25 30 39 41 27 23 28 23 20 8 15 20 29 25 28 31 23 21 21 20 18 18 16 16 19 21 29 35 38 45 45 45 46 51 58 63 64 64 79 69 63 72 75 78 75 61 68 63 49
12 26 14 10 16 19 11 19 31 34 19 25 23 29 24 23 24 20 19 23 22 20 22 20 20 21 18 20 34 40 46 42 47 48 52 52 56 61 80 87 87 72 78 68 71 71 60 62 55
31 15 13 14 17 30 43 19 3 6 23 24 19 21 18 12 14 15 16 22 24 27 29 28 26 26 24 19 20 35 42 43 43 44 51 50 55 51 70 83 80 80 71 74 61 63 63 56 55
7 14 16 24 37 31 22 30 32 32 13 21 17 17 22 22 22 24 27 29 32 35 37 37 36 32 29 28 21 26 31 47 42 41 44 55 49 46 58 67 78 73 64 60 63 58 58 62 65
26 14 8 7 10 25 24 38 22 22 28 29 28 33 37 38 46 46 44 48 49 49 50 47 47 44 37 33 29 25 24 27 46 53 45 47 47 50 60 64 61 68 64 58 60 64 64 65 62
11 17 15 12 16 13 23 15 36 43 31 30 28 48 55 63 70 74 77 66 62 60 58 57 53 50 45 37 33 33 29 29 28 42 58 51 47 47 53 59 61 61 60 62 71 73 73 67 64
32 34 27 12 20 15 19 39 17 3 23 38 48 53 62 67 72 74 76 79 72 66 63 61 55 52 47 42 38 35 35 32 30 35 43 58 50 52 49 52 50 65 67 64 71 76 74 70 65
Wind_Direction_500mb
296 302 308 279 252 239 210 150 326 226 2 356 339 323 346 300 23 16 338 337 182 175 181 182 181 183 182 178 178 177 178 179 177 170 165 169 168 166 163 161 160 160 159 162 166 169 167 160 160
291 280 260 268 261 238 189 130 211 324 346 336 342 335 28 87 16 331 350 352 180 178 182 185 185 186 185 183 182 182 185 186 184 181 177 176 174 171 169 167 168 169 171 171 173 172 168 162 162
151 169 256 253 254 258 272 152 116 293 318 350 345 30 24 356 353 344 326 282 177 178 185 187 189 189 189 188 188 188 193 191 190 187 184 181 179 176 174 174 172 174 178 178 178 177 170 165 163
188 215 233 246 253 219 331 119 133 269 259 336 343 90 104 39 3 348 343 166 174 176 179 196 191 191 194 194 192 196 199 199 196 193 189 185 184 182 180 179 176 177 178 181 185 182 173 170 168
202 243 250 249 259 1 210 267 283 273 290 310 335 24 354 10 9 6 7 133 178 180 180 196 192 193 197 198 197 203 206 203 200 197 193 189 188 187 185 185 182 181 181 186 191 185 180 176 174
221 271 245 256 248 179 228 240 265 250 264 294 320 315 66 9 5 10 17 145 185 185 184 197 194 194 199 202 204 207 209 208 204 200 196 194 193 191 191 191 190 190 192 196 202 193 190 186 185
262 242 260 276 277 228 194 287 276 306 275 262 323 291 327 357 356 6 12 71 185 192 189 193 197 197 199 205 210 210 211 210 208 205 201 198 196 195 196 197 197 199 204 204 208 202 198 196 192
257 264 254 244 256 254 106 299 290 300 295 313 288 277 310 330 340 351 3 30 195 194 194 194 191 200 202 205 208 211 213 212 210 208 206 202 199 200 201 201 204 207 209 210 212 208 206 203 201
194 246 247 247 250 225 145 295 266 299 282 281 289 285 297 315 333 329 333 354 210 203 200 195 198 198 196 202 210 208 209 212 210 210 207 205 204 204 205 204 208 209 209 211 212 213 211 208 208
240 246 272 23 340 284 295 287 303 294 281 276 274 275 287 302 306 303 308 300 262 224 212 206 207 200 197 202 207 210 211 207 207 207 208 206 200 204 204 211 212 209 211 212 214 216 213 209 213
185 271 89 200 292 292 291 281 282 282 277 275 290 285 291 295 290 285 282 279 269 248 225 213 216 208 203 204 205 200 204 204 205 206 209 202 203 205 199 213 211 211 214 214 216 217 214 210 206
250 236 255 267 283 287 280 290 271 265 273 278 277 280 287 286 285 280 276 272 272 254 239 227 218 217 211 209 210 206 204 205 205 206 209 200 203 206 202 207 208 207 214 205 212 213 208 212 207
253 181 247 268 276 279 285 273 275 275 268 270 274 274 273 274 274 274 274 275 268 265 250 236 225 223 220 210 216 209 208 209 208 209 211 203 206 207 204 208 206 212 209 212 210 207 212 209 207
69 279 277 273 278 271 270 279 274 269 273 258 267 271 264 268 273 269 270 270 265 265 267 238 232 229 228 222 215 216 213 213 210 211 211 211 208 212 209 207 207 209 210 210 211 210 209 205 209
290 280 270 246 210 287 308 269 252 261 262 269 273 266 255 266 267 264 265 265 265 264 268 260 232 232 229 233 221 221 221 214 215 213 215 217 215 215 214 215 211 214 212 206 206 207 205 207 212
261 246 254 146 257 271 244 282 278 290 257 273 276 278 268 264 262 262 261 260 260 258 259 261 259 239 234 226 223 221 223 220 219 217 217 221 220 216 223 216 214 211 208 212 212 213 207 210 214
199 301 304 301 200 274 267 291 276 269 263 270 274 271 267 266 261 259 260 258 255 256 258 256 257 251 231 230 226 225 225 223 221 219 217 222 223 223 224 216 214 210 207 208 210 212 207 211 211
313 303 302 297 305 297 292 284 287 289 273 267 265 264 264 264 262 260 258 259 258 257 253 254 256 257 230 227 231 225 224 223 220 220 217 219 224 230 231 221 218 218 217 210 207 212 215 211 215
292 288 293 297 314 298 298 292 294 291 278 269 264 257 257 260 265 264 258 258 260 257 252 244 248 247 240 226 225 225 223 224 221 220 220 214 223 225 228 227 229 223 214 208 214 212 212 212 212
282 287 287 304 305 318 302 294 297 279 270 265 269 268 262 262 261 266 266 263 262 262 257 251 241 243 245 231 229 226 225 226 224 222 222 218 218 227 225 225 226 227 218 222 217 211 206 216 217
279 288 297 302 311 282 295 291 166 338 285 290 283 287 271 255 270 269 268 275 273 260 255 249 244 243 243 230 229 229 227 231 232 232 228 228 223 221 220 222 220 229 220 220 221 218 203 215 220
290 329 309 297 304 301 333 294 297 315 311 276 281 288 270 252 280 260 272 291 299 274 265 258 250 243 242 241 219 221 223 227 232 231 236 230 232 220 220 220 222 229 227 217 222 220 212 207 219
291 325 296 290 282 289 276 253 287 275 303 347 329 341 331 237 303 286 288 302 307 312 297 281 277 254 241 232 220 223 225 230 231 234 232 234 234 232 219 218 222 225 227 216 211 211 214 221 215
312 289 287 266 266 259 258 230 280 287 341 310 313 315 316 322 321 294 295 308 309 318 320 324 318 308 256 233 235 223 226 225 230 227 232 234 227 235 224 218 220 223 225 224 220 214 215 214 224
267 311 303 270 205 253 142 270 256 288 306 316 316 315 317 318 293 288 298 305 306 312 323 330 332 327 316 253 238 236 234 233 228 227 233 228 224 230 230 223 222 220 225 221 220 218 217 223 225
300 290 281 293 298 306 314 262 62 273 301 291 329 327 335 332 330 312 310 310 305 307 311 316 325 324 318 307 260 250 239 232 239 236 234 228 232 232 233 225 220 222 221 221 217 215 220 220 226
43 245 1 289 273 265 248 248 243 252 245 272 287 312 294 308 309 299 299 297 299 300 301 306 309 307 309 305 296 261 251 242 231 237 237 236 231 226 229 217 218 219 215 214 212 210 215 218 220
242 321 271 229 279 299 293 296 295 356 324 309 306 300 305 309 302 295 293 293 290 291 292 292 295 297 296 294 296 285 269 253 245 230 233 234 228 225 219 220 219 218 213 211 206 206 212 216 217
238 237 231 299 277 284 300 288 342 316 325 338 329 332 316 303 301 298 295 292 284 283 281 280 282 285 288 285 285 286 282 269 253 249 235 238 238 230 226 224 219 213 209 202 206 210 215 213 214
268 264 262 251 266 252 282 283 294 232 334 312 308 302 309 311 302 294 288 287 281 276 275 272 272 272 276 279 278 276 276 274 265 247 244 236 238 238 231 225 217 201 196 201 214 212 214 215 202
Wind_Speed_850mb
11 8 5 9 14 11 9 12 5 2 1 17 23 10 18 5 20 10 25 11 8 32 42 52 49 44 41 40 38 36 32 32 32 29 28 31 32 37 38 37 33 32 30 29 27 24 22 22 25
4 2 4 10 15 18 13 12 15 5 15 22 17 13 4 28 25 14 18 16 18 35 43 54 49 46 41 41 39 37 33 32 33 32 31 33 34 38 38 35 33 31 28 26 25 24 23 25 28
1 7 14 9 18 22 16 10 10 8 15 18 13 10 11 17 26 23 31 9 20 35 43 49 51 49 44 42 40 37 33 34 34 35 34 35 35 37 38 35 32 28 26 26 25 23 23 27 29
2 7 11 18 30 9 12 7 2 6 8 6 16 7 11 20 23 30 21 4 26 33 40 50 55 50 45 42 39 36 34 34 35 37 37 36 36 37 40 37 32 27 26 25 24 22 22 26 30
4 10 18 26 28 4 8 4 6 9 7 12 15 5 3 10 24 27 16 6 22 30 38 48 56 52 47 42 39 37 35 34 36 38 37 37 37 37 39 37 33 28 25 23 21 21 22 25 29
14 10 18 30 29 10 12 5 11 9 8 12 11 20 3 12 25 25 15 4 19 30 36 43 56 53 48 43 40 38 35 34 36 39 39 38 37 38 39 38 33 28 24 22 20 20 21 25 28
22 14 26 28 17 15 9 7 4 9 15 8 19 16 5 18 22 21 17 2 18 28 34 35 55 54 50 45 41 38 35 34 35 39 40 40 39 39 41 39 34 29 26 24 22 21 22 24 27
8 9 17 21 22 22 9 9 8 16 17 18 5 4 9 27 23 16 13 3 11 25 33 35 40 51 53 49 46 40 37 35 35 38 40 41 42 41 41 40 36 32 28 26 24 22 23 23 25
4 12 21 27 18 5 6 12 8 17 28 17 19 22 18 18 21 16 13 9 8 21 30 36 39 41 42 38 49 45 41 38 36 38 42 43 42 43 43 41 40 35 32 29 27 25 24 23 23
15 16 16 13 8 14 13 18 24 23 27 27 25 21 20 22 21 16 12 9 6 18 30 36 40 43 43 41 42 51 48 45 44 44 47 47 37 38 34 39 41 39 36 33 30 28 26 24 17
3 15 7 10 7 13 24 25 21 27 32 28 27 28 28 29 24 22 19 14 12 12 25 36 41 43 44 43 40 42 39 38 42 45 47 44 36 34 36 32 42 40 39 33 33 32 28 24 22
16 4 10 6 18 26 29 32 32 35 41 37 36 38 37 34 29 25 24 21 18 15 19 29 42 43 48 45 45 43 44 43 42 44 48 43 40 37 37 33 31 33 31 29 27 25 25 27 25
15 5 11 19 27 33 36 38 40 42 38 42 38 37 38 34 30 28 25 23 20 19 18 26 35 44 48 53 48 48 49 49 46 45 49 46 43 42 39 36 33 31 32 31 30 28 28 27 26
2 17 26 28 25 23 27 34 29 27 23 22 25 31 33 33 36 35 33 30 26 22 20 23 35 42 44 51 54 51 51 51 51 49 48 56 46 44 42 41 37 35 34 31 30 29 28 28 25
14 24 21 18 11 20 15 35 43 37 33 36 35 37 38 42 43 44 40 38 35 30 26 27 41 42 49 52 55 56 53 53 53 53 56 59 57 52 51 48 39 37 35 35 34 33 32 29 27
19 14 13 19 19 16 11 33 29 17 25 43 45 49 50 50 51 52 51 49 44 38 37 35 32 41 49 52 52 55 57 55 55 54 54 63 61 58 54 46 45 41 38 35 32 32 32 31 30
17 14 22 16 22 16 25 38 29 31 43 50 59 58 58 59 58 58 56 56 54 49 46 48 44 46 49 53 51 55 59 62 58 56 56 61 67 63 58 45 44 49 45 39 35 33 34 36 33
22 28 24 28 16 33 41 47 38 38 41 52 56 58 62 66 66 60 58 56 54 51 52 59 52 44 50 53 54 57 62 68 59 60 58 58 67 72 69 50 47 52 49 39 37 36 36 35 33
24 29 33 31 27 31 41 52 47 47 49 50 56 59 62 63 60 52 55 52 53 49 50 61 60 47 41 53 60 62 67 71 64 61 63 62 66 69 66 61 59 58 47 46 50 42 38 36 34
27 33 35 30 20 32 41 62 51 40 28 36 42 50 51 47 44 40 39 42 46 48 47 45 48 55 46 46 57 62 62 70 62 59 65 63 59 69 69 66 61 60 52 59 54 52 43 43 41
27 32 35 40 36 35 30 43 7 27 21 24 21 23 30 33 33 33 35 34 39 43 43 47 44 41 50 41 45 48 56 59 58 71 71 71 67 61 66 65 62 64 60 57 63 58 54 46 38
35 20 25 34 28 23 23 25 35 15 16 14 20 24 29 28 22 24 22 24 23 25 31 40 43 45 44 42 44 53 52 60 59 58 72 72 68 66 60 61 66 69 67 61 61 59 57 59 46
22 20 29 33 36 40 36 20 13 14 12 13 15 18 7 7 14 18 18 20 18 16 16 20 27 41 44 36 42 46 50 48 44 54 66 65 66 71 66 61 65 71 73 62 61 64 66 62 56
25 30 39 41 27 23 28 23 20 8 15 20 29 25 28 31 23 21 21 20 18 18 16 16 19 21 29 35 38 45 45 45 46 51 58 63 64 64 79 69 63 72 75 78 75 61 68 63 49
12 26 14 10 16 19 11 19 31 34 19 25 23 29 24 23 24 20 19 23 22 20 22 20 20 21 18 20 34 40 46 42 47 48 52 52 56 61 80 87 87 72 78 68 71 71 60 62 55
31 15 13 14 17 30 43 19 3 6 23 24 19 21 18 12 14 15 16 22 24 27 29 28 26 26 24 19 20 35 42 43 43 44 51 50 55 51 70 83 80 80 71 74 61 63 63 56 55
7 14 16 24 37 31 22 30 32 32 13 21 17 17 22 22 22 24 27 29 32 35 37 37 36 32 29 28 21 26 31 47 42 41 44 55 49 46 58 67 78 73 64 60 63 58 58 62 65
26 14 8 7 10 25 24 38 22 22 28 29 28 33 37 38 46 46 44 48 49 49 50 47 47 44 37 33 29 25 24 27 46 53 45 47 47 50 60 64 61 68 64 58 60 64 64 65 62
11 17 15 12 16 13 23 15 36 43 31 30 28 48 55 63 70 74 77 66 62 60 58 57 53 50 45 37 33 33 29 29 28 42 58 51 47 47 53 59 61 61 60 62 71 73 73 67 64
32 34 27 12 20 15 19 39 17 3 23 38 48 53 62 67 72 74 76 79 72 66 63 61 55 52 47 42 38 35 35 32 30 35 43 58 50 52 49 52 50 65 67 64 71 76 74 70 65
Wind_Direction_850mb
296 302 308 279 252 239 210 150 326 226 2 356 339 323 346 300 23 16 338 337 182 175 181 182 181 183 182 178 178 177 178 179 177 170 165 169 168 166 163 161 160 160 159 162 166 169 167 160 160
291 280 260 268 261 238 189 130 211 324 346 336 342 335 28 87 16 331 350 352 180 178 182 185 185 186 185 183 182 182 185 186 184 181 177 176 174 171 169 167 168 169 171 171 173 172 168 162 162
151 169 256 253 254 258 272 152 116 293 318 350 345 30 24 356 353 344 326 282 177 178 185 187 189 189 189 188 188 188 193 191 190 187 184 181 179 176 174 174 172 174 178 178 178 177 170 165 163
188 215 233 246 253 219 331 119 133 269 259 336 343 90 104 39 3 348 343 166 174 176 179 196 191 191 194 194 192 196 199 199 196 193 189 185 184 182 180 179 176 177 178 181 185 182 173 170 168
202 243 250 249 259 1 210 267 283 273 290 310 335 24 354 10 9 6 7 133 178 180 180 196 192 193 197 198 197 203 206 203 200 197 193 189 188 187 185 185 182 181 181 186 191 185 180 176 174
221 271 245 256 248 179 228 240 265 250 264 294 320 315 66 9 5 10 17 145 185 185 184 197 194 194 199 202 204 207 209 208 204 200 196 194 193 191 191 191 190 190 192 196 202 193 190 186 185
262 242 260 276 277 228 194 287 276 306 275 262 323 291 327 357 356 6 12 71 185 192 189 193 197 197 199 205 210 210 211 210 208 205 201 198 196 195 196 197 197 199 204 204 208 202 198 196 192
257 264 254 244 256 254 106 299 290 300 295 313 288 277 310 330 340 351 3 30 195 194 194 194 191 200 202 205 208 211 213 212 210 208 206 202 199 200 201 201 204 207 209 210 212 208 206 203 201
194 246 247 247 250 225 145 295 266 299 282 281 289 285 297 315 333 329 333 354 210 203 200 195 198 198 196 202 210 208 209 212 210 210 207 205 204 204 205 204 208 209 209 211 212 213 211 208 208
240 246 272 23 340 284 295 287 303 294 281 276 274 275 287 302 306 303 308 300 262 224 212 206 207 200 197 202 207 210 211 207 207 207 208 206 200 204 204 211 212 209 211 212 214 216 213 209 213
185 271 89 200 292 292 291 281 282 282 277 275 290 285 291 295 290 285 282 279 269 248 225 213 216 208 203 204 205 200 204 204 205 206 209 202 203 205 199 213 211 211 214 214 216 217 214 210 206
250 236 255 267 283 287 280 290 271 265 273 278 277 280 287 286 285 280 276 272 272 254 239 227 218 217 211 209 210 206 204 205 205 206 209 200 203 206 202 207 208 207 214 205 212 213 208 212 207
253 181 247 268 276 279 285 273 275 275 268 270 274 274 273 274 274 274 274 275 268 265 250 236 225 223 220 210 216 209 208 209 208 209 211 203 206 207 204 208 206 212 209 212 210 207 212 209 207
69 279 277 273 278 271 270 279 274 269 273 258 267 271 264 268 273 269 270 270 265 265 267 238 232 229 228 222 215 216 213 213 210 211 211 211 208 212 209 207 207 209 210 210 211 210 209 205 209
290 280 270 246 210 287 308 269 252 261 262 269 273 266 255 266 267 264 265 265 265 264 268 260 232 232 229 233 221 221 221 214 215 213 215 217 215 215 214 215 211 214 212 206 206 207 205 207 212
261 246 254 146 257 271 244 282 278 290 257 273 276 278 268 264 262 262 261 260 260 258 259 261 259 239 234 226 223 221 223 220 219 217 217 221 220 216 223 216 214 211 208 212 212 213 207 210 214
199 301 304 301 200 274 267 291 276 269 263 270 274 271 267 266 261 259 260 258 255 256 258 256 257 251 231 230 226 225 225 223 221 219 217 222 223 223 224 216 214 210 207 208 210 212 207 211 211
313 303 302 297 305 297 292 284 287 289 273 267 265 264 264 264 262 260 258 259 258 257 253 254 256 257 230 227 231 225 224 223 220 220 217 219 224 230 231 221 218 218 217 210 207 212 215 211 215
292 288 293 297 314 298 298 292 294 291 278 269 264 257 257 260 265 264 258 258 260 257 252 244 248 247 240 226 225 225 223 224 221 220 220 214 223 225 228 227 229 223 214 208 214 212 212 212 212
282 287 287 304 305 318 302 294 297 279 270 265 269 268 262 262 261 266 266 263 262 262 257 251 241 243 245 231 229 226 225 226 224 222 222 218 218 227 225 225 226 227 218 222 217 211 206 216 217
279 288 297 302 311 282 295 291 166 338 285 290 283 287 271 255 270 269 268 275 273 260 255 249 244 243 243 230 229 229 227 231 232 232 228 228 223 221 220 222 220 229 220 220 221 218 203 215 220
290 329 309 297 304 301 333 294 297 315 311 276 281 288 270 252 280 260 272 291 299 274 265 258 250 243 242 241 219 221 223 227 232 231 236 230 232 220 220 220 222 229 227 217 222 220 212 207 219
291 325 296 290 282 289 276 253 287 275 303 347 329 341 331 237 303 286 288 302 307 312 297 281 277 254 241 232 220 223 225 230 231 234 232 234 234 232 219 218 222 225 227 216 211 211 214 221 215
312 289 287 266 266 259 258 230 280 287 341 310 313 315 316 322 321 294 295 308 309 318 320 324 318 308 256 233 235 223 226 225 230 227 232 234 227 235 224 218 220 223 225 224 220 214 215 214 224
267 311 303 270 205 253 142 270 256 288 306 316 316 315 317 318 293 288 298 305 306 312 323 330 332 327 316 253 238 236 234 233 228 227 233 228 224 230 230 223 222 220 225 221 220 218 217 223 225
300 290 281 293 298 306 314 262 62 273 301 291 329 327 335 332 330 312 310 310 305 307 311 316 325 324 318 307 260 250 239 232 239 236 234 228 232 232 233 225 220 222 221 221 217 215 220 220 226
43 245 1 289 273 265 248 248 243 252 245 272 287 312 294 308 309 299 299 297 299 300 301 306 309 307 309 305 296 261 251 242 231 237 237 236 231 226 229 217 218 219 215 214 212 210 215 218 220
242 321 271 229 279 299 293 296 295 356 324 309 306 300 305 309 302 295 293 293 290 291 292 292 295 297 296 294 296 285 269 253 245 230 233 234 228 225 219 220 219 218 213 211 206 206 212 216 217
238 237 231 299 277 284 300 288 342 316 325 338 329 332 316 303 301 298 295 292 284 283 281 280 282 285 288 285 285 286 282 269 253 249 235 238 238 230 226 224 219 213 209 202 206 210 215 213 214
268 264 262 251 266 252 282 283 294 232 334 312 308 302 309 311 302 294 288 287 281 276 275 272 272 272 276 279 278 276 276 274 265 247 244 236 238 238 231 225 217 201 196 201 214 212 214 215 202